Hourly Data Report for February 16, 2019

MIRAMICHI RCS
NEW BRUNSWICK
Current Station Operator: ECCC - MSC

47°00'34.000" N
65°27'54.000" W
33.00 m
8100989
71744
ACQ

Download Data

Hourly Data (February 2019)
Hourly Data Report for February 16, 2019
TIME
LST
Temp Definition
°C
Dew Point Definition
°C
Rel Hum Definition
%
Precip. Amount Definition
mm

Wind Dir Definition
10's deg

Wind Spd Definition
km/h
Visibility Definition
km
Stn Press Definition
kPa
Hmdx Definition


Wind Chill Definition


Weather Definition


00:00 -2.1 -3.0 93 1.8 13 14   100.24   -7 LegendNANA
01:00 -1.2 -2.1 94 0.6 11 14   100.01   -6 LegendNANA
02:00 0.8 0.1 95 1.4 13 24   99.73     LegendNANA
03:00 2.0 1.0 94 1.6 17 19   99.56     LegendNANA
04:00 2.8 2.0 95 1.1 17 22   99.44     LegendNANA
05:00 3.3 2.8 97 0.9 23 18   99.52     LegendNANA
06:00 1.6 0.8 95 0.4 26 12   99.55     LegendNANA
07:00 1.3 0.0 91 0.0 25 16   99.63     LegendNANA
08:00 0.9 -0.5 90 0.0 24 10   99.68     LegendNANA
09:00 0.6 -1.2 88 0.0 24 10   99.73     LegendNANA
10:00 0.7 -2.0 82 0.0 27 12   99.75     LegendNANA
11:00 0.2 -3.3 77 0.0 27 19   99.74     LegendNANA
12:00 0.0 -4.1 74 0.0 26 21   99.73   -5 LegendNANA
13:00 0.4 -4.6 69 0.0 28 20   99.64     LegendNANA
14:00 1.0 -4.3 67 0.0 26 23   99.59     LegendNANA
15:00 0.5 -5.5 64 0.0 27 18   99.61     LegendNANA
16:00 -0.1 -5.7 66 0.0 28 20   99.65   -5 LegendNANA
17:00 -0.4 -5.6 68 0.0 27 16   99.70   -5 LegendNANA
18:00 -0.7 -5.5 70 0.0 26 13   99.75   -5 LegendNANA
19:00 -1.7 -5.8 73 0.0 25 12   99.79   -6 LegendNANA
20:00 -2.4 -5.9 77 0.0 25 11   99.82   -6 LegendNANA
21:00 -3.4 -6.5 79 0.0 26 12   99.84   -8 LegendNANA
22:00 -3.5 -6.7 79 0.0 26 14   99.91   -9 LegendNANA
23:00 -4.2 -7.2 80 0.0 27 10   99.99   -8 LegendNANA

Notes on Data Quality.

Legend

  • E = Estimated
  • M = Missing
  • NA = Not Available*
  • [empty] = Indicates an unobserved value
Date modified: